Change the Weather History Date:

Thursday, February 23, 2012

  Actual Average (KTYS) Record (KTYS)
Temperature  
Mean Temperature 62 °F 44 °F  
Max Temperature 77 °F 55 °F 83 °F (1996)
Min Temperature 46 °F 34 °F 13 °F (1963)
Degree Days  
Heating Degree Days 4 21  
Month to date heating degree days 536  
Since 1 July heating degree days 2798  
Cooling Degree Days 0 0  
Month to date cooling degree days 0  
Year to date cooling degree days 0  
Growing Degree Days 12 (Base 50)    
Moisture  
Dew Point 53 °F    
Average Humidity 80    
Maximum Humidity 100    
Minimum Humidity 41    
Precipitation  
Precipitation 0.01 in 0.15 in 2.46 in (1962)
Month to date precipitation 3.50  
Year to date precipitation 7.82  
Snow  
Snow 0.00 in 0.10 in - ()
Month to date snowfall 1.4  
Since 1 July snowfall 4.9  
Snow Depth -    
Sea Level Pressure  
Sea Level Pressure 29.65 in    
Wind  
Wind Speed 4 mph (SW)    
Max Wind Speed 20 mph    
Max Gust Speed 29 mph    
Visibility 6 miles    
Events Fog    
T = Trace of Precipitation, MM = Missing Value Source: NWS Daily Summary

Daily Weather History Graph

Daily Weather History Graph

Search for Another Location

Airport or City:

Trip Planner

Search our weather history database for the weather conditions in past years. The results will help you decide how hot, cold, wet, or windy it might be!

Date:

Astronomy

Feb. 23, 2012 Rise Set
Actual Time 7:13 AM EST 6:25 PM EST
Civil Twilight 6:47 AM EST 6:50 PM EST
Nautical Twilight 6:17 AM EST 7:20 PM EST
Astronomical Twilight 5:48 AM EST 7:49 PM EST
Moon 7:45 AM EST (2/23) 8:22 PM EST (2/23)
Length of Visible Light 12h 03m
Length of Day
11h 11m
Waxing Crescent, 3% of the Moon is Illuminated
Feb 23
Waxing Crescent
Feb 29
First Quarter
Mar 8
Full
Mar 14
Last Quarter
Mar 22
New

Hourly Weather History & Observations

Time (EST) Temp. Dew Point Humidity Pressure Visibility Wind Dir Wind Speed Gust Speed Precip Events Conditions
12:15 AM 51.8 °F 51.8 °F 100% 29.66 in 4.0 mi Calm Calm - N/A   Overcast
12:35 AM 51.8 °F 51.8 °F 100% 29.66 in 2.5 mi Calm Calm - N/A   Overcast
12:55 AM 51.8 °F 51.8 °F 100% 29.65 in 2.0 mi Calm Calm - N/A   Overcast
1:15 AM 51.8 °F 51.8 °F 100% 29.65 in 4.0 mi SSE 3.5 mph - N/A   Overcast
1:35 AM 51.8 °F 51.8 °F 100% 29.65 in 5.0 mi Calm Calm - N/A   Overcast
1:55 AM 51.8 °F 51.8 °F 100% 29.65 in 3.0 mi Calm Calm - N/A   Mostly Cloudy
2:15 AM 51.8 °F 51.8 °F 100% 29.65 in 4.0 mi Calm Calm - 0.01 in   Mostly Cloudy
2:35 AM 50.0 °F 50.0 °F 100% 29.64 in 1.0 mi Calm Calm - 0.01 in   Overcast
2:55 AM 51.8 °F 51.8 °F 100% 29.65 in 4.0 mi SE 3.5 mph - 0.01 in   Mostly Cloudy
3:15 AM 51.8 °F 51.8 °F 100% 29.65 in 4.0 mi Calm Calm - N/A   Mostly Cloudy
3:35 AM 50.0 °F 50.0 °F 100% 29.65 in 1.0 mi Calm Calm - N/A   Overcast
3:55 AM 51.8 °F 51.8 °F 100% 29.65 in 3.0 mi Calm Calm - N/A   Overcast
4:15 AM 50.0 °F 50.0 °F 100% 29.65 in 2.5 mi Calm Calm - N/A   Overcast
4:35 AM 50.0 °F 50.0 °F 100% 29.65 in 1.0 mi Calm Calm - N/A   Overcast
4:55 AM 50.0 °F 50.0 °F 100% 29.66 in 0.8 mi Calm Calm - N/A   Overcast
5:15 AM 50.0 °F 50.0 °F 100% 29.66 in 0.5 mi Calm Calm - N/A Fog Fog
5:35 AM 50.0 °F 50.0 °F 100% 29.67 in 0.5 mi Calm Calm - N/A Fog Fog
5:55 AM 48.2 °F 48.2 °F 100% 29.67 in 0.5 mi Calm Calm - N/A Fog Fog
6:15 AM 50.0 °F 50.0 °F 100% 29.67 in 0.2 mi Calm Calm - N/A Fog Fog
6:35 AM 48.2 °F 48.2 °F 100% 29.68 in 0.5 mi Calm Calm - N/A Fog Fog
6:55 AM 46.4 °F 46.4 °F 100% 29.68 in 0.2 mi Calm Calm - N/A Fog Fog
7:15 AM 46.4 °F 46.4 °F 100% 29.68 in 0.2 mi Calm Calm - N/A Fog Fog
7:35 AM 46.4 °F 46.4 °F 100% 29.68 in 0.2 mi Calm Calm - N/A Fog Fog
7:55 AM 46.4 °F 46.4 °F 100% 29.69 in 0.2 mi Calm Calm - N/A Fog Fog
8:15 AM 48.2 °F 48.2 °F 100% 29.70 in 0.2 mi Calm Calm - N/A Fog Fog
8:35 AM 50.0 °F 50.0 °F 100% 29.71 in 0.5 mi Calm Calm - N/A Fog Fog
8:55 AM 51.8 °F 51.8 °F 100% 29.71 in 0.2 mi Calm Calm - N/A Fog Fog
9:15 AM 53.6 °F 53.6 °F 100% 29.71 in 5.0 mi East 3.5 mph - N/A   Mostly Cloudy
9:35 AM 55.4 °F 55.4 °F 100% 29.71 in 7.0 mi Calm Calm - N/A   Mostly Cloudy
9:55 AM 57.2 °F 57.2 °F 100% 29.70 in 10.0 mi Calm Calm - N/A   Mostly Cloudy
10:15 AM 59.0 °F 59.0 °F 100% 29.70 in 10.0 mi West 3.5 mph - N/A   Overcast
10:35 AM 60.8 °F 60.8 °F 100% 29.70 in 10.0 mi WSW 8.1 mph - N/A   Mostly Cloudy
10:55 AM 64.4 °F 64.4 °F 100% 29.70 in 10.0 mi West 9.2 mph - N/A   Mostly Cloudy
11:15 AM 68.0 °F 62.6 °F 83% 29.70 in 10.0 mi West 10.4 mph - N/A   Mostly Cloudy
11:35 AM 69.8 °F 62.6 °F 78% 29.69 in 10.0 mi WSW 9.2 mph 20.7 mph N/A   Mostly Cloudy
11:55 AM 73.4 °F 64.4 °F 73% 29.68 in 10.0 mi WSW 11.5 mph 17.3 mph N/A   Scattered Clouds
12:15 PM 75.2 °F 64.4 °F 69% 29.68 in 10.0 mi SSW 11.5 mph - N/A   Mostly Cloudy
12:35 PM 75.2 °F 60.8 °F 61% 29.67 in 10.0 mi SW 15.0 mph - N/A   Scattered Clouds
12:55 PM 75.2 °F 60.8 °F 61% 29.65 in 10.0 mi SW 15.0 mph 19.6 mph N/A   Scattered Clouds
1:15 PM 73.4 °F 57.2 °F 57% 29.65 in 10.0 mi WSW 17.3 mph 23.0 mph N/A   Scattered Clouds
1:35 PM 75.2 °F 55.4 °F 50% 29.64 in 10.0 mi WSW 16.1 mph 24.2 mph N/A   Scattered Clouds
1:55 PM 75.2 °F 53.6 °F 47% 29.62 in 10.0 mi SW 13.8 mph 23.0 mph N/A   Mostly Cloudy
2:15 PM 75.2 °F 53.6 °F 47% 29.61 in 10.0 mi WSW 15.0 mph 23.0 mph N/A   Scattered Clouds
2:35 PM 75.2 °F 53.6 °F 47% 29.60 in 10.0 mi SW 12.7 mph 20.7 mph N/A   Clear
2:55 PM 75.2 °F 51.8 °F 44% 29.59 in 10.0 mi SW 11.5 mph 28.8 mph N/A   Scattered Clouds
3:15 PM 75.2 °F 51.8 °F 44% 29.58 in 10.0 mi SW 19.6 mph 27.6 mph N/A   Scattered Clouds
3:35 PM 77.0 °F 51.8 °F 41% 29.58 in 10.0 mi SW 10.4 mph 24.2 mph N/A   Scattered Clouds
3:55 PM 77.0 °F 53.6 °F 44% 29.58 in 10.0 mi SSW 12.7 mph 23.0 mph N/A   Scattered Clouds
4:15 PM 75.2 °F 53.6 °F 47% 29.58 in 10.0 mi SSW 10.4 mph 26.5 mph N/A   Scattered Clouds
4:35 PM 73.4 °F 53.6 °F 50% 29.58 in 10.0 mi SW 12.7 mph 24.2 mph N/A   Scattered Clouds
4:55 PM 75.2 °F 53.6 °F 47% 29.57 in 10.0 mi SW 13.8 mph 26.5 mph N/A   Clear
5:15 PM 73.4 °F 51.8 °F 47% 29.58 in 10.0 mi SW 15.0 mph 28.8 mph N/A   Clear
5:35 PM 73.4 °F 51.8 °F 47% 29.58 in 10.0 mi SW 16.1 mph 24.2 mph N/A   Clear
5:55 PM 73.4 °F 51.8 °F 47% 29.58 in 10.0 mi SW 17.3 mph 21.9 mph N/A   Clear
6:15 PM 71.6 °F 51.8 °F 50% 29.58 in 10.0 mi WSW 13.8 mph 23.0 mph N/A   Clear
6:35 PM 69.8 °F 51.8 °F 53% 29.59 in 10.0 mi SW 8.1 mph - N/A   Clear
6:55 PM 71.6 °F 53.6 °F 53% 29.59 in 10.0 mi SW 10.4 mph 18.4 mph N/A   Scattered Clouds
7:15 PM 69.8 °F 53.6 °F 56% 29.59 in 10.0 mi WSW 8.1 mph - N/A   Scattered Clouds
7:35 PM 69.8 °F 53.6 °F 56% 29.61 in 10.0 mi WSW 8.1 mph - N/A   Clear
7:55 PM 69.8 °F 53.6 °F 56% 29.60 in 10.0 mi WSW 5.8 mph - N/A   Scattered Clouds
8:15 PM 69.8 °F 55.4 °F 60% 29.61 in 10.0 mi SW 9.2 mph - N/A   Scattered Clouds
8:35 PM 69.8 °F 55.4 °F 60% 29.61 in 10.0 mi WSW 8.1 mph 17.3 mph N/A   Mostly Cloudy
8:55 PM 68.0 °F 55.4 °F 64% 29.62 in 10.0 mi WSW 8.1 mph - N/A   Mostly Cloudy
9:15 PM 68.0 °F 57.2 °F 68% 29.62 in 10.0 mi WSW 10.4 mph - N/A   Scattered Clouds
9:35 PM 68.0 °F 57.2 °F 68% 29.62 in 10.0 mi WSW 12.7 mph 16.1 mph N/A   Mostly Cloudy
9:55 PM 69.8 °F 59.0 °F 68% 29.62 in 10.0 mi WSW 10.4 mph 18.4 mph N/A   Overcast
10:15 PM 69.8 °F 59.0 °F 68% 29.62 in 10.0 mi WSW 5.8 mph - N/A   Overcast
10:35 PM 69.8 °F 59.0 °F 68% 29.63 in 10.0 mi WSW 12.7 mph 25.3 mph N/A   Overcast
10:55 PM 71.6 °F 59.0 °F 64% 29.64 in 10.0 mi SW 10.4 mph 20.7 mph N/A   Overcast
11:15 PM 71.6 °F 59.0 °F 64% 29.64 in 10.0 mi SW 9.2 mph - N/A   Overcast
11:35 PM 69.8 °F 59.0 °F 68% 29.64 in 10.0 mi WSW 11.5 mph 17.3 mph N/A   Mostly Cloudy
11:55 PM 69.8 °F 59.0 °F 68% 29.63 in 10.0 mi WSW 16.1 mph 20.7 mph N/A   Mostly Cloudy